Weather History for Mercury, NV

Change the Weather History Date:

Monday, September 3, 2012

  Actual Average Record
Temperature  
Mean Temperature 78 °F -  
Max Temperature 99 °F 91 °F 100 °F (2002)
Min Temperature 57 °F 64 °F 57 °F (1999)
Cooling Degree Days 13    
Growing Degree Days 28 (Base 50)    
Moisture  
Dew Point 12 °F    
Average Humidity 9    
Maximum Humidity 23    
Minimum Humidity 4    
Precipitation  
Precipitation 0.00 in - - ()
Sea Level Pressure  
Sea Level Pressure 29.89 in    
Wind  
Wind Speed 4 mph (SSW)    
Max Wind Speed 18 mph    
Max Gust Speed 26 mph    
Visibility 10 miles    
Events      
Averages and records for this station are not official NWS values.
T = Trace of Precipitation, MM = Missing Value Source: NWS Daily Summary

Daily Weather History Graph

Daily Weather History Graph

Search for Another Location

Airport:

Trip Planner

Search our weather history database for the weather conditions in past years. The results will help you decide how hot, cold, wet, or windy it might be!

Date:

Astronomy

Sep. 03, 2012 Rise Set
Actual Time 6:17 AM PDT 7:08 PM PDT
Civil Twilight 5:51 AM PDT 7:34 PM PDT
Nautical Twilight 5:19 AM PDT 8:05 PM PDT
Astronomical Twilight 4:47 AM PDT 8:37 PM PDT
Moon 8:37 PM PDT (9/3) 9:22 AM PDT (9/3)
Length of Visible Light 13h 43m
Length of Day
12h 51m
Waning Gibbous, 90% of the Moon is Illuminated
Sep 3
Waning Gibbous
Sep 8
Last Quarter
Sep 15
New
Sep 22
First Quarter
Sep 29
Full

Hourly Weather History & Observations

Time (PDT) Temp. Dew Point Humidity Pressure Visibility Wind Dir Wind Speed Gust Speed Precip Events Conditions
12:52 AM 64.0 °F 18.0 °F 17% 29.88 in 10.0 mi Calm Calm - N/A   Clear
1:52 AM 62.1 °F 18.0 °F 18% 29.88 in 10.0 mi Calm Calm - N/A   Clear
2:52 AM 61.0 °F 19.0 °F 20% 29.88 in 10.0 mi SE 6.9 mph - N/A   Clear
3:52 AM 63.0 °F 19.0 °F 18% 29.88 in 10.0 mi East 3.5 mph - N/A   Clear
4:52 AM 64.0 °F 16.0 °F 16% 29.88 in 10.0 mi Calm Calm - N/A   Clear
5:52 AM 62.1 °F 18.0 °F 18% 29.90 in 10.0 mi North 3.5 mph - N/A   Clear
6:52 AM 60.1 °F 21.9 °F 23% 29.93 in 10.0 mi Calm Calm - N/A   Clear
7:52 AM 69.1 °F 19.9 °F 15% 29.94 in 10.0 mi Calm Calm - N/A   Clear
8:52 AM 77.0 °F 17.1 °F 10% 29.94 in 10.0 mi Calm Calm - N/A   Clear
9:52 AM 86.0 °F 12.9 °F 7% 29.94 in 10.0 mi Calm Calm - N/A   Clear
10:52 AM 89.1 °F 10.0 °F 5% 29.94 in 10.0 mi Calm Calm - N/A   Clear
11:52 AM 93.0 °F 6.1 °F 4% 29.92 in 10.0 mi SW 6.9 mph - N/A   Clear
12:52 PM 97.0 °F 12.9 °F 5% 29.91 in 10.0 mi SSW 15.0 mph 23.0 mph N/A   Clear
1:05 PM 96.8 °F 10.4 °F 4% 30.04 in 10.0 mi SSW 16.1 mph 23.0 mph N/A   Clear
1:52 PM 98.1 °F 3.9 °F 4% 29.90 in 10.0 mi SW 16.1 mph 23.0 mph N/A   Clear
2:52 PM 98.1 °F -4.0 °F 4% 29.87 in 10.0 mi SW 18.4 mph 25.3 mph N/A   Clear
3:52 PM 98.1 °F -0.9 °F 4% 29.86 in 10.0 mi SSW 13.8 mph 26.5 mph N/A   Clear
4:52 PM 95.0 °F -0.9 °F 4% 29.85 in 10.0 mi SSW 12.7 mph - N/A   Clear
5:52 PM 95.0 °F 1.0 °F 4% 29.84 in 10.0 mi South 12.7 mph 19.6 mph N/A   Clear
6:52 PM 91.0 °F 1.0 °F 4% 29.84 in 10.0 mi SW 10.4 mph - N/A   Clear
7:52 PM 87.1 °F 5.0 °F 4% 29.85 in 10.0 mi South 6.9 mph - N/A   Clear
8:52 PM 84.0 °F 10.9 °F 6% 29.86 in 10.0 mi Calm Calm - N/A   Clear
9:52 PM 81.0 °F 17.1 °F 9% 29.86 in 10.0 mi ENE 4.6 mph - N/A   Clear
10:52 PM 80.1 °F 23.0 °F 12% 29.87 in 10.0 mi Calm Calm - N/A   Clear
11:52 PM 80.1 °F 25.0 °F 13% 29.86 in 10.0 mi Calm Calm - N/A   Clear